Home   Weather   Chilliwack   Past weeks

Flag for Canada Past Weather in Chilliwack, British Columbia, Canada — Yesterday and Last 2 Weeks

Now
51 °F

Cool.


Feels Like: 51 °F
Forecast: 46 / 54 °F
Wind: 1 mph from West

Location: Agassiz

Current Time: Apr 23, 2017 at 11:24:52 am

Latest Report: Apr 23, 2017 at 10:00 am


Visibility: N/A

Pressure: 29.87 "Hg

Humidity: 80%

Dew Point: 45 °F

Location of ChilliwackLocation

Past Weather in Chilliwack — Graph

°F

Chilliwack Temperature Yesterday

Maximum temperature yesterday: 60 °F (at 12:00 pm)
Minimum temperature yesterday: 49 °F (at 9:00 pm)
Average temperature yesterday: 54 °F

High & Low Weather Summary for the Past Weeks

 TemperatureHumidityPressure
High66 °F (Apr 21, 5:00 pm)100% (Apr 20, 7:00 am)30.42 "Hg (Apr 20, 7:00 am)
Low39 °F (Apr 9, 2:00 am)30% (Apr 16, 5:00 pm)29.64 "Hg (Apr 13, 12:00 am)
Average49 °F74%30.00 "Hg
* Reported Apr 8 10:00 am — Apr 23 10:00 am, Chilliwack, Weather by CustomWeather, © 2017

Note: Actual official high and low records may vary slightly from our data, if they occured in-between our weather recording intervals... More about our weather records

Advertising

Chilliwack Weather History for the Previous 24 Hours

Scroll right to see more
 ConditionsComfort  
Time TempWeatherWind HumidityBarometerVisibility
10:00 am
Sun, Apr 23
51 °FCool.1 mph80%29.87 "HgN/A
9:00 am49 °FCool.1 mph84%29.89 "HgN/A
8:00 am48 °FCool.3 mph90%29.89 "HgN/A
7:00 am48 °FCool.3 mph94%29.89 "HgN/A
6:00 am48 °FCool.No wind94%29.90 "HgN/A
5:00 am47 °FCool.1 mph94%29.90 "HgN/A
4:00 am49 °FCool.1 mph96%29.91 "HgN/A
3:00 am47 °FCool.2 mph100%29.92 "HgN/A
2:00 am49 °FCool.1 mph96%29.92 "HgN/A
1:00 am49 °FCool.2 mph95%29.92 "HgN/A
12:00 am50 °FCool.1 mph95%29.91 "HgN/A
11:00 pm
Sat, Apr 22
50 °FCool.3 mph96%29.90 "HgN/A
10:00 pm50 °FCool.1 mph95%29.91 "HgN/A
9:00 pm49 °FCool.1 mph95%29.90 "HgN/A
8:00 pm51 °FCool.2 mph94%29.87 "HgN/A
7:00 pm51 °FCool.No wind95%29.87 "HgN/A
6:00 pm53 °FCool.2 mph85%29.87 "HgN/A
5:00 pm54 °FCool.2 mph80%29.85 "HgN/A
4:00 pm54 °FCool.1 mph79%29.86 "HgN/A
3:00 pm53 °FCool.2 mph81%29.88 "HgN/A
2:00 pm56 °FRefreshingly cool.8 mph58%29.86 "HgN/A
1:00 pm60 °FRefreshingly cool.5 mph51%29.78 "HgN/A
12:00 pm60 °FRefreshingly cool.8 mph47%29.75 "HgN/A
11:00 am58 °FRefreshingly cool.10 mph48%29.76 "HgN/A
Weather by CustomWeather, © 2017

See weather overviewHow to use our weather pages